Location: Unspecified
(0.0000°N, 0.0000°E)
Time: 05:32:10
(UTC+00:00)

S-56A Canister/Altair - Visible Passes

Search period start: 18 April 2014 00:00
Search period end: 28 April 2014 00:00
Orbit: 632 x 2503 km, 38.9° (Epoch: 14 April)

Date Brightness Start Highest point End Pass type
(mag) Time Alt. Az. Time Alt. Az. Time Alt. Az.
18 Apr 9.1 04:40:47 15° NW 04:40:47 15° NW 04:43:06 10° N visible
19 Apr 9.4 04:10:34 15° N 04:10:34 15° N 04:11:42 10° N visible
20 Apr 11.6 18:27:01 10° SW 18:30:26 11° SSW 18:33:45 10° SSW visible
